Location: Muck Cross
(36.7179°N, 78.3678°W)
Time: 10:38:32
(UTC+00:00)

Transit 2A Rocket - All Passes

Search period start: 30 March 2023 00:00
Search period end: 09 April 2023 00:00
Orbit: 583 x 916 km, 66.7° (Epoch: 29 March)

Date Brightness Start Highest point End Pass type
(mag) Time Alt. Az. Time Alt. Az. Time Alt. Az.
30 Mar - 00:12:11 10° NNW 00:18:09 56° ENE 00:23:46 10° SE visible
30 Mar - 01:55:56 10° WNW 02:00:12 21° WSW 02:04:17 10° SSW visible
30 Mar - 14:43:02 10° SSW 14:48:21 65° ESE 14:54:10 10° NNE daylight
30 Mar - 16:27:23 10° W 16:31:30 20° NW 16:35:50 10° N daylight
30 Mar - 23:29:13 10° N 23:34:42 34° NE 23:39:54 10° ESE daylight
31 Mar - 01:11:52 10° NW 01:17:17 36° WSW 01:22:24 10° S visible
31 Mar - 14:00:27 10° S 14:05:18 36° ESE 14:10:34 10° NE daylight
31 Mar - 15:42:58 10° WSW 15:47:53 32° NW 15:53:11 10° N daylight
31 Mar - 22:46:32 10° N 22:51:07 22° NE 22:55:30 10° E daylight
01 Apr - 00:28:16 10° NNW 00:34:14 65° WSW 00:39:48 10° SSE visible
01 Apr - 13:18:34 10° SSE 13:22:25 20° ESE 13:26:27 10° ENE daylight
01 Apr - 14:59:05 10° SW 15:04:25 54° WNW 15:10:14 10° NNE daylight
01 Apr - 22:04:20 10° NNE 22:07:20 14° NE 22:10:17 10° ENE daylight
01 Apr - 23:44:57 10° NNW 23:51:01 75° ENE 23:56:41 10° SSE daylight
02 Apr - 01:29:46 10° WNW 01:32:47 14° WSW 01:35:44 10° SW visible
02 Apr - 12:39:17 10° ESE 12:39:37 10° E 12:39:57 10° E daylight
02 Apr - 14:15:42 10° SSW 14:21:08 88° ESE 14:27:04 10° NNE daylight
02 Apr - 16:01:11 10° W 16:04:36 16° NW 16:08:09 10° N daylight
02 Apr - 23:01:53 10° NNW 23:07:40 44° ENE 23:13:06 10° SE daylight
03 Apr - 00:45:06 10° NW 00:49:56 26° WSW 00:54:32 10° SSW visible
03 Apr - 13:32:47 10° S 13:37:59 50° ESE 13:43:40 10° NE daylight
03 Apr - 15:16:20 10° WSW 15:20:54 25° NW 15:25:44 10° N daylight
03 Apr - 22:19:01 10° N 22:24:09 28° NE 22:29:01 10° ESE daylight
04 Apr - 00:01:15 10° NW 00:06:58 46° WSW 00:12:17 10° S visible
04 Apr - 12:50:27 10° SSE 12:55:00 28° ESE 12:59:53 10° NE daylight
04 Apr - 14:32:09 10° SW 14:37:20 40° NW 14:42:56 10° NNE daylight
04 Apr - 21:36:30 10° N 21:40:28 18° NE 21:44:19 10° E daylight
04 Apr - 23:17:47 10° NNW 23:23:51 82° WSW 23:29:27 10° SSE daylight
05 Apr - 12:09:03 10° SE 12:12:09 15° ESE 12:15:21 10° ENE daylight
05 Apr - 13:48:29 10° SW 13:53:57 68° WNW 13:59:54 10° NNE daylight
05 Apr - 15:35:22 10° WNW 15:37:44 12° NW 15:40:09 10° NNW daylight
05 Apr - 20:54:51 10° NNE 20:56:38 11° NE 20:58:23 10° ENE daylight
05 Apr - 22:34:35 10° NNW 22:40:34 59° ENE 22:46:08 10° SE daylight
06 Apr - 00:18:34 10° WNW 00:22:32 19° WSW 00:26:20 10° SSW visible
06 Apr - 13:05:17 10° SSW 13:10:42 70° ESE 13:16:37 10° NNE daylight
06 Apr - 14:49:53 10° W 14:53:56 19° NW 14:58:10 10° N daylight
06 Apr - 21:51:36 10° NNW 21:57:07 36° NE 22:02:20 10° ESE daylight
06 Apr - 23:34:21 10° NW 23:39:38 33° WSW 23:44:34 10° S daylight
07 Apr - 12:22:36 10° S 12:27:38 39° ESE 12:33:03 10° NE daylight
07 Apr - 14:05:22 10° WSW 14:10:17 31° NW 14:15:32 10° N daylight
07 Apr - 21:08:52 10° N 21:13:31 23° NE 21:17:59 10° E daylight
07 Apr - 22:50:42 10° NW 22:56:35 60° WSW 23:02:02 10° S daylight
08 Apr - 11:40:35 10° SSE 11:44:42 22° ESE 11:49:02 10° ENE daylight
08 Apr - 13:21:25 10° SW 13:26:48 50° WNW 13:32:37 10° NNE daylight
08 Apr - 20:26:34 10° N 20:29:46 14° NE 20:32:54 10° ENE daylight
08 Apr - 22:07:21 10° NNW 22:13:23 80° ENE 22:18:59 10° SSE daylight
08 Apr - 23:52:34 10° WNW 23:55:04 13° W 23:57:30 10° SW daylight
